User: anonymous   Login
Location: Buckeye Ditch
(40.9104°N, 122.9517°W)
Time: 08:11:10
(UTC+00:00)
Language:

Cosmos 1461 - Orbit

View from above orbital plane
View from above orbital plane
View from above satellite
View from above satellite

Ground track
Ground track

The orbit data is extracted from the following two-line orbital elements,

1 14064U 83044A   24164.65671327  .00010843  00000-0  67466-3 0  9996
2 14064  64.9970 271.4475 0059546 116.0125 244.7147 15.08516297105253
Epoch (UTC): 12 June 2024 15:45:40
Eccentricity: 0.0059546
inclination: 64.9970°
perigee height: 499 km
apogee height: 582 km
right ascension of ascending node: 271.4475°
argument of perigee: 116.0125°
revolutions per day: 15.08516297
mean anomaly at epoch: 244.7147°
orbit number at epoch: 10525

The dashed part of the orbit path shows where the satellite is in the earth's shadow,  

DLR